Hlavní strana
METAR-TAF:

METAR-TAF

Letiště :

Paris, Tennessee, Spojené státy americké

zeměpisná šířka: 36-20-18N, zeměpisná délka: 088-22-58W, výška: 177 m

Aktuální stav počasí

Zpráva byla vytvořena před 13 minutami, v 02:15 UTC
Bezvětří
Teplota 8°C
Vlhkost vzduchu 81%
Tlak 1029 hPa
Viditelnost: 16.1 km
Jasno

METAR: KPHT 190215Z AUTO 00000KT 10SM CLR 08/05 A3038 RMK A01

Čas: 21:28 (02:28 UTC)


TAF: chybějící

Stav a předpovědi počasí z více než 4 000 letišť (zprávy METAR a TAF).

Červené a žluté tečky na mapě představují dostupné meteorologické stanice.

Když kurzor umístíte na tečku, zobrazí se název stanice.

Pak kliknutím zobrazíte stav a předpověď počasí.

Chcete-li změnit mapu, kliknutím na zelené tlačítko se znaménkem +mapu přiblížíte, kliknutím na zelené tlačítko se znaménkem – mapu oddálíte a kliknutím na zelené šipky přejdete na sousední mapy.


METAR-TAF: